Location: Chisholm
(54.9102°N, 114.1701°W)
Time: 02:53:36
(UTC+00:00)

ISS - Pass Details

Date: 01 December 2021
Orbit: 413 x 422 km, 51.6° (Epoch: 23 January)

Event Time Altitude Azimuth Distance (km) Brightness Sun altitude
Rises 02:06:54 0° 273° (W) 2,385 1.5 -23.6°
Reaches altitude 10° 02:09:06 10° 264° (W) 1,516 0.2 -23.9°
Enters shadow 02:11:36 32° 223° (SW) 761 -2.1 -24.2°
